Waarnemingen

Advertentie
Mijn weer
Thorney Island, Groot Brittannië (3872): temperatuur & dauwpunt: 26.03.2020 17:00:00 - 01.04.2020 17:00:00 (BST)Thorney Island, Groot Brittannië (3872): temperatuur -20cm & temperatuur -100cm: 26.03.2020 17:00:00 - 01.04.2020 17:00:00 (BST)Thorney Island, Groot Brittannië (3872): windsnelheid & windstoten: 26.03.2020 17:00:00 - 01.04.2020 17:00:00 (BST)Thorney Island, Groot Brittannië (3872): windrichting: 26.03.2020 17:00:00 - 01.04.2020 17:00:00 (BST)Thorney Island, Groot Brittannië (3872): luchtdruk: 26.03.2020 17:00:00 - 01.04.2020 17:00:00 (BST)Thorney Island, Groot Brittannië (3872): zicht: 26.03.2020 17:00:00 - 01.04.2020 17:00:00 (BST)Thorney Island, Groot Brittannië (3872): neerslag: 26.03.2020 17:00:00 - 01.04.2020 17:00:00 (BST)
Datum & Tijd tt [°C] td [°C] tt -20cm [°C] tt -100cm [°C] ff [km/u] ff [kn] fx [km/u] fx [kn] dd ppp [hPa] vv [km] rr [mm]
01.04.2020 17:00:00 9,1 -0,6 - - 16 9 - - N 1021,2 45 0,0
01.04.2020 16:00:00 9,0 1,0 - - 9 5 - - WZW 1021,6 35 0,0
01.04.2020 15:00:00 8,3 1,8 - - 16 9 - - Z 1022,0 40 0,0
01.04.2020 14:00:00 7,9 0,6 - - 16 9 - - Z 1022,7 50 0,0
01.04.2020 13:00:00 9,5 -0,9 - - 8 4 - - N 1023,3 45 0,0
01.04.2020 12:00:00 9,3 0,8 - - 15 8 - - NO 1024,1 24 0,0
01.04.2020 11:00:00 7,5 -0,8 - - 11 6 - - NO 1024,8 40 0,0
01.04.2020 10:00:00 6,6 1,0 7,9 7,7 13 7 - - ONO 1025,3 30 0,0
01.04.2020 09:00:00 4,3 1,1 - - 13 7 - - NNO 1025,4 21 0,0
01.04.2020 08:00:00 1,5 -0,6 - - 15 8 - - N 1025,6 19 0,0
01.04.2020 07:00:00 -0,2 -1,6 - - 11 6 - - N 1025,7 22 0,0
01.04.2020 06:00:00 -0,3 -1,8 - - 9 5 - - N 1025,7 21 0,0
01.04.2020 05:00:00 0,5 -1,5 - - 13 7 - - N 1026,0 25 0,0
01.04.2020 04:00:00 1,1 -1,0 - - 8 4 - - N 1026,5 29 0,0
01.04.2020 03:00:00 0,5 -1,7 - - 9 5 - - NNO 1027,3 30 0,0
01.04.2020 02:00:00 0,1 -2,3 - - 11 6 - - NO 1027,8 28 0,0
01.04.2020 01:00:00 0,5 -2,3 - - 5 3 - - NNO 1028,3 35 0,0
01.04.2020 00:00:00 0,9 -2,7 - - 11 6 - - NNO 1028,6 45 0,0
31.03.2020 23:00:00 1,1 -2,0 - - 9 5 - - NO 1028,8 40 0,0
31.03.2020 22:00:00 3,2 -1,1 - - 11 6 - - ONO 1028,9 40 0,0
31.03.2020 21:00:00 5,6 0,1 - - 11 6 - - ONO 1029,1 40 0,0
31.03.2020 20:00:00 7,0 0,1 - - 13 7 - - ONO 1029,0 50 0,0
31.03.2020 19:00:00 8,2 -0,2 - - 26 14 - - ONO 1028,8 40 0,0
31.03.2020 18:00:00 9,2 0,0 - - 24 13 - - NO 1029,0 40 0,0
31.03.2020 17:00:00 9,5 -0,9 - - 28 15 - - NO 1029,2 50 -
31.03.2020 16:00:00 10,9 1,7 - - 18 10 - - ONO 1029,4 30 0,0
31.03.2020 15:00:00 9,5 1,6 - - 15 8 - - O 1029,9 35 0,0
31.03.2020 14:00:00 9,4 1,2 - - 18 10 - - O 1030,5 30 0,0
31.03.2020 13:00:00 9,2 1,4 - - 24 13 - - ONO 1030,9 45 0,0
31.03.2020 12:00:00 7,9 2,2 - - 28 15 - - ONO 1031,2 14 0,0
31.03.2020 11:00:00 8,0 1,8 - - 24 13 - - ONO 1031,5 24 0,0
31.03.2020 10:00:00 6,5 2,1 8,0 7,7 29 16 - - NO 1031,6 30 0,0
31.03.2020 09:00:00 5,5 1,7 - - 24 13 - - NNO 1031,5 30 0,0
31.03.2020 08:00:00 3,6 1,1 - - 15 8 - - NNO 1031,4 30 0,0
31.03.2020 07:00:00 2,4 0,5 - - 18 10 - - NNO 1031,0 23 0,0
31.03.2020 06:00:00 2,3 0,3 - - 15 8 - - NNO 1030,7 25 0,0
31.03.2020 05:00:00 3,7 1,1 - - 21 11 - - NNO 1030,6 27 0,0
31.03.2020 04:00:00 4,4 1,4 - - 21 11 - - NNO 1030,7 30 0,0
31.03.2020 03:00:00 4,8 1,9 - - 13 7 - - NNO 1031,0 30 0,0
31.03.2020 02:00:00 4,5 1,6 - - 15 8 - - NNO 1031,0 35 0,0
31.03.2020 01:00:00 4,6 1,0 - - 16 9 - - NNO 1031,1 50 0,0
31.03.2020 00:00:00 5,4 1,4 - - 18 10 - - NNO 1030,9 50 0,0
30.03.2020 23:00:00 6,0 1,7 - - 22 12 - - NNO 1031,2 50 0,0
30.03.2020 22:00:00 6,2 1,9 - - 21 11 - - NNO 1031,0 45 0,0
30.03.2020 21:00:00 6,1 1,6 - - 13 7 - - NNO 1031,1 35 0,0
30.03.2020 20:00:00 6,8 2,8 - - 11 6 - - NNO 1030,7 40 0,0
30.03.2020 19:00:00 7,1 2,5 - - 16 9 - - NNO 1030,5 40 0,0
30.03.2020 18:00:00 7,8 2,5 - - 24 13 - - NO 1030,7 45 0,0
30.03.2020 17:00:00 8,0 2,8 - - 18 10 - - N 1030,9 50 0,0
30.03.2020 16:00:00 9,2 2,8 - - 22 12 - - NNO 1031,5 50 0,0
30.03.2020 15:00:00 8,1 2,4 - - 29 16 - - NO 1032,1 40 0,0
30.03.2020 14:00:00 7,7 1,8 - - 18 10 - - NNO 1032,9 35 0,0
30.03.2020 13:00:00 8,5 2,8 - - 22 12 - - N 1033,5 35 0,0
30.03.2020 12:00:00 7,6 0,9 - - 21 11 - - N 1033,9 40 0,0
30.03.2020 11:00:00 7,2 -0,3 - - 21 11 - - NNO 1034,5 45 0,0
30.03.2020 10:00:00 5,1 -1,5 7,9 7,9 22 12 - - N 1035,3 40 0,0
30.03.2020 09:00:00 4,2 -0,6 - - 18 10 - - NNO 1035,6 30 0,0
30.03.2020 08:00:00 2,4 -1,0 - - 15 8 - - NNO 1036,1 40 0,0
30.03.2020 07:00:00 1,2 -1,6 - - 13 7 - - N 1036,2 40 0,0
30.03.2020 06:00:00 2,1 -1,0 - - 15 8 - - N 1036,2 50 0,0
30.03.2020 05:00:00 1,9 -0,9 - - 15 8 - - N 1036,6 40 0,0
30.03.2020 04:00:00 1,5 -1,7 - - 13 7 - - N 1037,0 40 0,0
30.03.2020 03:00:00 1,8 -2,1 - - 11 6 - - N 1037,7 45 0,0
30.03.2020 02:00:00 1,3 -4,1 - - 11 6 - - N 1038,2 50 0,0
30.03.2020 01:00:00 1,3 -4,6 - - 8 4 - - NW 1038,7 40 0,0
30.03.2020 00:00:00 2,4 -4,5 - - 18 10 - - NNO 1038,7 40 0,0
29.03.2020 23:00:00 3,5 -4,6 - - 22 12 - - NO 1038,9 45 0,0
29.03.2020 22:00:00 3,7 -5,0 - - 28 15 - - NNO 1038,6 50 0,0
29.03.2020 21:00:00 4,1 -5,8 - - 29 16 - - NNO 1038,4 50 0,0
29.03.2020 20:00:00 4,8 -5,9 - - 34 18 59 32 NNO 1037,8 45 0,0
29.03.2020 19:00:00 6,0 -5,5 - - 34 18 57 31 NNO 1037,2 50 0,0
29.03.2020 18:00:00 6,8 -5,2 - - 42 23 61 33 NNO 1036,7 50 0,0
29.03.2020 17:00:00 6,7 -2,1 - - 34 18 67 36 NO 1036,7 40 0,0
29.03.2020 16:00:00 7,5 -1,8 - - 44 24 61 33 NNO 1036,5 22 0,0
29.03.2020 15:00:00 7,8 -0,5 - - 50 27 68 37 NNO 1036,6 30 0,0
29.03.2020 14:00:00 7,4 -1,1 - - 41 22 63 34 NNO 1036,5 40 0,0
29.03.2020 13:00:00 7,8 -2,0 - - 44 24 67 36 NO 1036,4 23 0,0
29.03.2020 12:00:00 8,0 -3,0 - - 46 25 67 36 NO 1036,1 30 0,0
29.03.2020 11:00:00 7,1 -4,5 - - 41 22 65 35 NNO 1035,7 40 0,0
29.03.2020 10:00:00 6,0 -3,2 8,4 7,9 35 19 57 31 NNO 1035,7 35 0,0
29.03.2020 09:00:00 4,5 -2,5 - - 41 22 65 35 NNO 1035,3 27 0,0
29.03.2020 08:00:00 3,5 -2,3 - - 34 18 52 28 NNO 1034,9 30 0,0
29.03.2020 07:00:00 3,2 -2,5 - - 22 12 - - NNO 1034,7 27 0,0
29.03.2020 06:00:00 3,3 -2,6 - - 21 11 - - NNO 1034,7 27 0,0
29.03.2020 05:00:00 3,7 -1,6 - - 18 10 - - NNO 1034,5 23 0,0
29.03.2020 04:00:00 4,2 -1,4 - - 29 16 46 25 NNO 1034,2 30 0,0
29.03.2020 03:00:00 4,4 -0,9 - - 31 17 46 25 NO 1034,0 30 0,0
29.03.2020 02:00:00 4,5 -0,1 - - 28 15 46 25 NNO 1033,6 29 0,0
29.03.2020 01:00:00 4,7 0,0 - - 29 16 - - NNO 1033,1 35 0,0
29.03.2020 00:00:00 5,1 -0,5 - - 29 16 48 26 NNO 1032,8 45 0,0
28.03.2020 23:00:00 5,4 -1,7 - - 31 17 63 34 NNO 1032,3 45 0,0
28.03.2020 22:00:00 6,5 -0,6 - - 42 23 59 32 NNO 1031,1 40 0,0
28.03.2020 21:00:00 7,2 -0,1 - - 28 15 55 30 NNO 1030,8 45 0,0
28.03.2020 20:00:00 8,4 -0,7 - - 35 19 59 32 NNO 1029,7 50 0,0
28.03.2020 19:00:00 9,0 0,9 - - 31 17 59 32 NO 1028,9 40 0,0
28.03.2020 18:00:00 9,5 1,4 - - 44 24 63 34 NO 1027,7 50 0,0
28.03.2020 17:00:00 9,8 2,8 - - 35 19 65 35 NO 1027,7 35 0,0
28.03.2020 16:00:00 10,8 3,4 - - 42 23 61 33 NO 1027,3 35 0,0
28.03.2020 15:00:00 12,1 1,8 - - 44 24 57 31 NNO 1026,6 45 0,0
28.03.2020 14:00:00 12,3 1,7 - - 35 19 55 30 NO 1026,6 35 0,0
28.03.2020 13:00:00 11,7 1,5 - - 37 20 61 33 NO 1026,3 19 0,0
28.03.2020 12:00:00 11,0 1,9 - - 46 25 63 34 NO 1026,0 17 0,0
28.03.2020 11:00:00 9,8 1,7 - - 37 20 54 29 NO 1025,7 20 0,0
28.03.2020 10:00:00 7,8 1,7 8,5 7,9 31 17 46 25 NO 1025,5 18 0,0
28.03.2020 09:00:00 6,4 1,8 - - 29 16 48 26 NNO 1025,0 16 0,0
28.03.2020 08:00:00 5,1 1,1 - - 28 15 - - NNO 1024,6 16 0,0
28.03.2020 07:00:00 4,7 0,9 - - 29 16 52 28 NNO 1024,1 16 0,0
28.03.2020 06:00:00 4,7 1,0 - - 35 19 48 26 NNO 1023,5 17 0,0
28.03.2020 05:00:00 4,7 1,0 - - 35 19 48 26 NNO 1023,1 18 0,0
28.03.2020 04:00:00 4,9 1,0 - - 26 14 - - NNO 1023,3 18 0,0
28.03.2020 03:00:00 5,2 1,0 - - 22 12 - - NNO 1023,4 16 0,0
28.03.2020 02:00:00 5,4 0,6 - - 22 12 - - NNO 1023,6 17 0,0
28.03.2020 01:00:00 5,7 0,2 - - 21 11 - - NNO 1023,7 21 0,0
28.03.2020 00:00:00 5,8 0,0 - - 21 11 - - NNO 1023,8 24 0,0
27.03.2020 23:00:00 7,2 -0,2 - - 21 11 - - NNO 1023,8 25 0,0
27.03.2020 22:00:00 8,0 -0,5 - - 18 10 - - NO 1023,3 22 0,0
27.03.2020 21:00:00 9,1 -0,2 - - 21 11 - - NO 1023,0 24 0,0
27.03.2020 20:00:00 9,9 0,3 - - 21 11 - - NO 1022,2 26 0,0
27.03.2020 19:00:00 11,5 0,2 - - 24 13 - - NNO 1021,5 30 0,0
27.03.2020 18:00:00 12,5 0,7 - - 26 14 - - NO 1021,0 25 0,0
27.03.2020 17:00:00 12,9 1,0 - - 24 13 - - NO 1021,0 23 0,0
27.03.2020 16:00:00 13,2 0,8 - - 24 13 - - NO 1021,4 29 0,0
27.03.2020 15:00:00 12,9 1,0 - - 29 16 - - NO 1021,8 30 0,0
27.03.2020 14:00:00 12,5 1,2 - - 26 14 - - NO 1022,3 18 0,0
27.03.2020 13:00:00 11,6 1,6 - - 24 13 - - NO 1022,8 23 0,0
27.03.2020 12:00:00 10,4 1,5 - - 24 13 - - NO 1023,1 18 0,0
27.03.2020 11:00:00 8,9 0,7 - - 29 16 - - NO 1023,1 15 0,0
27.03.2020 10:00:00 6,8 1,8 8,2 8,0 21 11 - - NNO 1023,2 17 0,0
27.03.2020 09:00:00 4,2 1,1 - - 16 9 - - NNO 1023,0 12 0,0
27.03.2020 08:00:00 2,4 0,3 - - 21 11 - - NNO 1022,9 9 0,0
27.03.2020 07:00:00 1,6 -0,3 - - 15 8 - - N 1022,6 10 0,0
27.03.2020 06:00:00 2,1 -0,1 - - 16 9 - - NNO 1022,3 10 0,0
27.03.2020 05:00:00 2,3 -0,3 - - 15 8 - - NNO 1022,4 11 0,0
27.03.2020 04:00:00 3,3 -0,2 - - 18 10 - - NNO 1022,3 14 0,0
27.03.2020 03:00:00 3,5 -0,6 - - 16 9 - - NNO 1022,4 14 0,0
27.03.2020 02:00:00 4,2 -0,5 - - 18 10 - - NNO 1022,5 17 0,0
27.03.2020 01:00:00 4,3 -0,4 - - 16 9 - - NO 1022,6 17 0,0
27.03.2020 00:00:00 4,5 -1,3 - - 22 12 - - NO 1022,6 24 0,0
26.03.2020 23:00:00 4,1 -2,2 - - 16 9 - - NO 1022,7 23 0,0
26.03.2020 22:00:00 4,0 -5,0 - - 16 9 - - ONO 1022,7 29 0,0
26.03.2020 21:00:00 5,0 -4,3 - - 16 9 - - ONO 1022,2 45 0,0
26.03.2020 20:00:00 8,0 -5,7 - - 15 8 - - ONO 1021,5 50 0,0
26.03.2020 19:00:00 9,5 -5,4 - - 16 9 - - ONO 1021,2 40 0,0
26.03.2020 18:00:00 11,1 -5,0 - - 28 15 - - NO 1021,0 40 0,0
26.03.2020 17:00:00 - - - - - - - - - - - -

tt = temperatuur
td = dauwpunt
tt -20cm = temperatuur -20cm
tt -100cm = temperatuur -100cm
ff = windsnelheid
fx = windstoten
dd = windrichting
ppp = luchtdruk
vv = zicht
rr = neerslag

Weerstations in de omgeving